This demonstration page uses our WeatherBlox Daily Observations layout. Learn more.

Left ArrowRight Arrow

39.12711, -84.51439

Hourly Observations for October 21, 2016

Temp ( °F °C ) Dew Point ( °F °C ) Humidity (%) Winds ( mph kmh ) Pressure ( in mb ) Visibility ( mi km ) Precip ( " mm )
12:00 am 00:00 Cloudy with Rain 54 12 N/A N/A NNE 9 15 29.94 1014 6 10 0.00 0.00
12:36 am 00:36 Cloudy with Rain 54 12 N/A N/A NNW 10 17 29.94 1014 6 10 0.00 0.00
12:53 am 00:53 Cloudy with Rain 54 12 N/A N/A NNW 14 22 29.94 1014 5 8 0.00 0.00
1:53 am 01:53 Cloudy 55 13 N/A N/A NNW 12 19 29.89 1012 10 16 0.02 0.51
2:53 am 02:53 Cloudy with Light Rain 54 12 N/A N/A NNW 13 20 29.91 1013 6 10 0.00 0.03
3:17 am 03:17 Cloudy with Light Rain 54 12 N/A N/A NNW 14 22 29.94 1014 4 6 0.02 0.51
3:53 am 03:53 Cloudy with Light Rain 54 12 N/A N/A NNW 17 28 29.90 1013 5 8 0.03 0.76
4:53 am 04:53 Cloudy with Light Rain 54 12 N/A N/A NNW 17 28 29.91 1013 6 10 0.03 0.76
5:53 am 05:53 Cloudy with Heavy Rain 52 11 N/A N/A NNW 13 20 29.94 1014 4 6 0.04 1.02
6:40 am 06:40 Cloudy with Rain 52 11 N/A N/A NNW 20 31 29.97 1015 6 10 0.00 0.00
6:53 am 06:53 Cloudy with Light Rain 52 11 N/A N/A N 14 22 29.96 1015 9 14 0.05 1.27
7:53 am 07:53 Cloudy with Light Rain 52 11 N/A N/A NNW 9 15 29.97 1015 10 16 0.01 0.25
8:53 am 08:53 Cloudy 51 10.6 48 8.9 89 89 NNW 13 20 29.99 1016 10 16 0.01 0.25
9:53 am 09:53 Cloudy 52 11 N/A N/A N 10 17 30.01 1016 10 16 0.00 0.00
10:53 am 10:53 Mostly Cloudy 52 11.1 48 8.9 86 86 NNW 16 26 30.03 1017 10 16 0.00 0.00
11:53 am 11:53 Mostly Sunny 55 12.8 46 7.8 72 72 N 18 30 30.03 1017 10 16 0.00 0.00
12:53 pm 12:53 Partly Cloudy 58 14.4 47 8.3 67 67 NNW 14 22 30.03 1017 10 16 0.00 0.00
1:53 pm 13:53 Cloudy 54 12.2 45 7.2 72 72 NW 12 19 30.03 1017 10 16 0.00 0.00
2:41 pm 14:41 Cloudy 53 11.7 44 6.7 72 72 NW 9 15 30.03 1017 10 16 0.00 0.00
2:53 pm 14:53 Cloudy 53 11.7 44 6.7 72 72 NW 15 24 30.04 1017 10 16 0.00 0.00
3:53 pm 15:53 Mostly Cloudy 54 12.2 42 5.6 64 64 NW 8 13 30.03 1017 10 16 0.00 0.00
4:53 pm 16:53 Cloudy 56 13.3 41 5 57 57 NW 9 15 30.04 1017 10 16 0.00 0.00
5:53 pm 17:53 Mostly Cloudy 54 12.2 40 4.4 59 59 N 14 22 30.05 1018 10 16 0.00 0.00
6:53 pm 18:53 Mostly Cloudy 52 11.1 40 4.4 64 64 NW 7 11 30.06 1018 10 16 0.00 0.00
7:53 pm 19:53 Mostly Cloudy 52 11.1 40 4.4 64 64 NNW 7 11 30.06 1018 10 16 0.00 0.00
8:53 pm 20:53 Mostly Cloudy 51 10.6 40 4.4 66 66 NW 5 7 30.06 1018 10 16 0.00 0.00
9:53 pm 21:53 Cloudy 51 10.6 41 5 69 69 VRB 5 7 30.05 1018 10 16 0.00 0.00
10:53 pm 22:53 Cloudy 51 10.6 41 5 69 69 NNW 8 13 30.06 1018 10 16 0.00 0.00
11:53 pm 23:53 Cloudy 50 10 41 5 71 71 NNW 3 6 30.06 1018 10 16 0.00 0.00

Powered by AerisWeather